Location: Unspecified
(0.0000°N, 0.0000°E)
Time: 21:49:57
(UTC+00:00)

Hubble Space Telescope - Pass Details

Date: 20 April 2018
Orbit: 537 x 541 km, 28.5° (Epoch: 19 October)

Event Time Altitude Azimuth Distance (km) Brightness Sun altitude
Rises 19:44:17 0° 255° (WSW) 2,676 5.3 -25.8°
Reaches altitude 10° 19:46:40 10° 264° (W) 1,785 4.3 -26.3°
Enters shadow 19:50:20 35° 326° (NW) 878 2.1 -27.2°
